| time (UTC) | temp F | wind direction | speed MPH | gust MPH | rain 1hr in | rain 24hr in | rain mn in | humidity % | barometer mb |
| 20260509162708 | 71 | 253 | 2.0 | 9.0 | 0.00 | 0.00 | 0.00 | 53 | 1003.0 |
| 20260509162209 | 71 | 100 | 2.0 | 9.0 | 0.00 | 0.00 | 0.00 | 56 | 1002.9 |
| 20260509161709 | 71 | 172 | 3.0 | 9.0 | 0.00 | 0.00 | 0.00 | 54 | 1002.9 |
| 20260509161435 | 71 | 183 | 3.0 | 10.0 | 0.00 | 0.00 | 0.00 | 53 | 1003.1 |
| 20260509160209 | 71 | 175 | 2.0 | 8.0 | 0.00 | 0.00 | 0.00 | 57 | 1003.2 |
| 20260509155930 | 71 | 170 | 2.0 | 7.0 | 0.00 | 0.00 | 0.00 | 58 | 1003.2 |
| 20260509155438 | 71 | 88 | 2.0 | 7.0 | 0.00 | 0.00 | 0.00 | 58 | 1003.2 |
| 20260509154709 | 71 | 203 | 2.0 | 11.0 | 0.00 | 0.00 | 0.00 | 58 | 1003.3 |
| 20260509154208 | 70 | 224 | 2.0 | 11.0 | 0.00 | 0.00 | 0.00 | 59 | 1003.3 |
| 20260509153707 | 70 | 148 | 1.0 | 5.0 | 0.00 | 0.00 | 0.00 | 58 | 1003.2 |
| 20260509153437 | 70 | 127 | 1.0 | 6.0 | 0.00 | 0.00 | 0.00 | 58 | 1003.2 |
| 20260509152704 | 70 | 226 | 1.0 | 6.0 | 0.00 | 0.00 | 0.00 | 60 | 1003.3 |
| 20260509151659 | 69 | 173 | 2.0 | 6.0 | 0.00 | 0.00 | 0.00 | 63 | 1003.6 |
| 20260509151159 | 69 | 226 | 2.0 | 7.0 | 0.00 | 0.00 | 0.00 | 61 | 1003.6 |
| 20260509150659 | 68 | 214 | 2.0 | 7.0 | 0.00 | 0.00 | 0.00 | 63 | 1003.7 |
| 20260509150423 | 68 | 243 | 3.0 | 8.0 | 0.00 | 0.00 | 0.00 | 61 | 1003.8 |
| 20260509145918 | 68 | 222 | 2.0 | 8.0 | 0.00 | 0.00 | 0.00 | 62 | 1003.8 |
| 20260509145150 | 68 | 220 | 2.0 | 6.0 | 0.00 | 0.00 | 0.00 | 63 | 1003.9 |
| 20260509144908 | 68 | 219 | 1.0 | 4.0 | 0.00 | 0.00 | 0.00 | 64 | 1004.0 |
| 20260509144149 | 68 | 225 | 1.0 | 4.0 | 0.00 | 0.00 | 0.00 | 65 | 1004.0 |
| 20260509143909 | 67 | 109 | 1.0 | 4.0 | 0.00 | 0.00 | 0.00 | 66 | 1004.1 |
| 20260509143147 | 67 | 214 | 1.0 | 4.0 | 0.00 | 0.00 | 0.00 | 68 | 1004.0 |
| 20260509142647 | 66 | 235 | 1.0 | 5.0 | 0.00 | 0.00 | 0.00 | 67 | 1004.0 |
| 20260509142144 | 66 | 210 | 1.0 | 5.0 | 0.00 | 0.00 | 0.00 | 67 | 1004.0 |
| 20260509141644 | 66 | 245 | 1.0 | 4.0 | 0.00 | 0.00 | 0.00 | 69 | 1004.0 |
| 20260509141144 | 65 | 265 | 1.0 | 4.0 | 0.00 | 0.00 | 0.00 | 68 | 1003.9 |
| 20260509140644 | 65 | 236 | 1.0 | 5.0 | 0.00 | 0.00 | 0.00 | 70 | 1004.0 |
| 20260509140144 | 65 | 233 | 1.0 | 5.0 | 0.00 | 0.00 | 0.00 | 71 | 1004.0 |
| 20260509135644 | 65 | 221 | 2.0 | 6.0 | 0.00 | 0.00 | 0.00 | 71 | 1004.1 |
| 20260509135144 | 65 | 93 | 1.0 | 6.0 | 0.00 | 0.00 | 0.00 | 70 | 1004.1 |
| 20260509134644 | 64 | 135 | 1.0 | 3.0 | 0.00 | 0.00 | 0.00 | 73 | 1004.1 |
| 20260509134141 | 64 | 221 | 1.0 | 6.0 | 0.00 | 0.00 | 0.00 | 73 | 1004.1 |
| 20260509133639 | 63 | 197 | 1.0 | 6.0 | 0.00 | 0.00 | 0.00 | 73 | 1004.1 |
| 20260509133139 | 63 | 191 | 2.0 | 7.0 | 0.00 | 0.00 | 0.00 | 73 | 1004.2 |
| 20260509132634 | 63 | 276 | 2.0 | 7.0 | 0.00 | 0.00 | 0.00 | 74 | 1004.2 |
| 20260509132134 | 63 | 236 | 2.0 | 8.0 | 0.00 | 0.00 | 0.00 | 73 | 1004.2 |
| 20260509131635 | 63 | 172 | 2.0 | 8.0 | 0.00 | 0.00 | 0.00 | 73 | 1004.2 |
| 20260509131134 | 62 | 198 | 1.0 | 6.0 | 0.00 | 0.00 | 0.00 | 73 | 1004.2 |
| 20260509130634 | 62 | 198 | 1.0 | 5.0 | 0.00 | 0.00 | 0.00 | 74 | 1004.2 |
| 20260509130134 | 62 | 224 | 1.0 | 5.0 | 0.00 | 0.00 | 0.00 | 74 | 1004.1 |
| 20260509125635 | 62 | 194 | 1.0 | 8.0 | 0.00 | 0.00 | 0.00 | 75 | 1004.2 |
| 20260509125135 | 61 | 240 | 2.0 | 8.0 | 0.00 | 0.00 | 0.00 | 75 | 1004.2 |
| 20260509124634 | 61 | 179 | 2.0 | 7.0 | 0.00 | 0.00 | 0.00 | 75 | 1004.3 |
| 20260509124131 | 61 | 202 | 1.0 | 7.0 | 0.00 | 0.00 | 0.00 | 75 | 1004.2 |
| 20260509123630 | 61 | 210 | 1.0 | 5.0 | 0.00 | 0.00 | 0.00 | 75 | 1004.2 |
| 20260509123351 | 61 | 209 | 1.0 | 6.0 | 0.00 | 0.00 | 0.00 | 76 | 1004.2 |
| 20260509122631 | 60 | 234 | 1.0 | 6.0 | 0.00 | 0.00 | 0.00 | 77 | 1004.2 |
| 20260509122131 | 60 | 205 | 1.0 | 5.0 | 0.00 | 0.00 | 0.00 | 78 | 1004.3 |
| 20260509121633 | 60 | 230 | 1.0 | 7.0 | 0.00 | 0.00 | 0.00 | 78 | 1004.4 |
| 20260509121133 | 59 | 181 | 1.0 | 7.0 | 0.00 | 0.00 | 0.00 | 78 | 1004.3 |
| 20260509120633 | 59 | 257 | 1.0 | 7.0 | 0.00 | 0.00 | 0.00 | 79 | 1004.3 |
| 20260509120357 | 59 | 162 | 1.0 | 7.0 | 0.00 | 0.00 | 0.00 | 78 | 1004.3 |
| 20260509115629 | 59 | 212 | 1.0 | 6.0 | 0.00 | 0.00 | 0.00 | 79 | 1004.3 |
| 20260509115129 | 59 | 158 | 2.0 | 8.0 | 0.00 | 0.00 | 0.00 | 78 | 1004.4 |
| 20260509114848 | 58 | 281 | 1.0 | 8.0 | 0.00 | 0.00 | 0.00 | 79 | 1004.3 |
| 20260509114346 | 58 | 245 | 1.0 | 5.0 | 0.00 | 0.00 | 0.00 | 79 | 1004.4 |
| 20260509113627 | 58 | 240 | 1.0 | 3.0 | 0.00 | 0.00 | 0.00 | 79 | 1004.3 |
| 20260509113126 | 58 | 269 | 1.0 | 4.0 | 0.00 | 0.00 | 0.00 | 79 | 1004.4 |
| 20260509112626 | 58 | 238 | 1.0 | 4.0 | 0.00 | 0.00 | 0.00 | 78 | 1004.2 |
| 20260509112126 | 58 | 233 | 1.0 | 4.0 | 0.00 | 0.00 | 0.00 | 78 | 1004.2 |
| 20260509111626 | 58 | 217 | 1.0 | 4.0 | 0.00 | 0.00 | 0.00 | 78 | 1004.2 |
| 20260509111123 | 57 | 240 | 1.0 | 4.0 | 0.00 | 0.00 | 0.00 | 77 | 1004.1 |
| 20260509110624 | 57 | 245 | 1.0 | 4.0 | 0.00 | 0.00 | 0.00 | 77 | 1004.2 |
| 20260509110348 | 57 | 252 | 1.0 | 3.0 | 0.00 | 0.00 | 0.00 | 77 | 1004.3 |
| 20260509105624 | 57 | 240 | 1.0 | 3.0 | 0.00 | 0.00 | 0.00 | 77 | 1004.2 |
| 20260509105124 | 57 | 283 | 0.0 | 2.0 | 0.00 | 0.00 | 0.00 | 77 | 1004.2 |
| 20260509104624 | 57 | 255 | 0.0 | 2.0 | 0.00 | 0.00 | 0.00 | 77 | 1004.2 |
| 20260509104124 | 56 | 180 | 0.0 | 2.0 | 0.00 | 0.00 | 0.00 | 77 | 1004.2 |
| 20260509103625 | 56 | 263 | 0.0 | 3.0 | 0.00 | 0.00 | 0.00 | 77 | 1004.1 |
| 20260509103123 | 56 | 179 | 0.0 | 3.0 | 0.00 | 0.00 | 0.00 | 77 | 1004.0 |
| 20260509102621 | 56 | 234 | 0.0 | 1.0 | 0.00 | 0.00 | 0.00 | 76 | 1004.0 |
| 20260509102115 | 56 | 143 | 0.0 | 0.0 | 0.00 | 0.00 | 0.00 | 75 | 1004.0 |
| 20260509101609 | 56 | 143 | 0.0 | 1.0 | 0.00 | 0.00 | 0.00 | 75 | 1003.9 |
| 20260509101104 | 57 | 143 | 0.0 | 2.0 | 0.00 | 0.00 | 0.00 | 75 | 1004.0 |
| 20260509100815 | 57 | 143 | 0.0 | 2.0 | 0.00 | 0.00 | 0.00 | 74 | 1003.9 |
| 20260509100310 | 57 | 298 | 0.0 | 5.0 | 0.00 | 0.00 | 0.00 | 74 | 1003.9 |
| 20260509095546 | 56 | 305 | 0.0 | 5.0 | 0.00 | 0.00 | 0.00 | 73 | 1003.7 |
| 20260509095040 | 56 | 152 | 0.0 | 0.0 | 0.00 | 0.00 | 0.00 | 73 | 1003.9 |
| 20260509094534 | 57 | 152 | 0.0 | 1.0 | 0.00 | 0.00 | 0.00 | 72 | 1003.8 |
| 20260509094247 | 57 | 152 | 0.0 | 2.0 | 0.00 | 0.00 | 0.00 | 72 | 1003.9 |
| 20260509093520 | 57 | 214 | 0.0 | 3.0 | 0.00 | 0.00 | 0.00 | 71 | 1003.9 |
| 20260509093014 | 57 | 186 | 0.0 | 3.0 | 0.00 | 0.00 | 0.00 | 71 | 1003.9 |
| 20260509092508 | 57 | 256 | 0.0 | 2.0 | 0.00 | 0.00 | 0.00 | 71 | 1004.0 |
| 20260509092002 | 57 | 188 | 0.0 | 2.0 | 0.00 | 0.00 | 0.00 | 70 | 1004.0 |
| 20260509091456 | 57 | 224 | 0.0 | 1.0 | 0.00 | 0.00 | 0.00 | 70 | 1003.9 |
| 20260509090949 | 57 | 224 | 0.0 | 2.0 | 0.00 | 0.00 | 0.00 | 70 | 1003.9 |
| 20260509090204 | 57 | 178 | 0.0 | 3.0 | 0.00 | 0.00 | 0.00 | 70 | 1004.0 |
| 20260509085432 | 57 | 187 | 0.0 | 3.0 | 0.00 | 0.00 | 0.00 | 69 | 1004.0 |
| 20260509084925 | 57 | 246 | 0.0 | 1.0 | 0.00 | 0.00 | 0.00 | 69 | 1004.1 |
| 20260509084420 | 57 | 219 | 0.0 | 2.0 | 0.00 | 0.00 | 0.00 | 70 | 1004.1 |
| 20260509083408 | 57 | 210 | 1.0 | 3.0 | 0.00 | 0.00 | 0.00 | 70 | 1004.1 |
| 20260509082902 | 57 | 220 | 1.0 | 3.0 | 0.00 | 0.00 | 0.00 | 70 | 1004.1 |
| 20260509082355 | 57 | 207 | 0.0 | 2.0 | 0.00 | 0.00 | 0.00 | 70 | 1004.2 |
| 20260509082116 | 57 | 234 | 0.0 | 3.0 | 0.00 | 0.00 | 0.00 | 70 | 1004.2 |
| 20260509081344 | 57 | 231 | 0.0 | 3.0 | 0.00 | 0.00 | 0.00 | 70 | 1004.3 |
| 20260509081056 | 57 | 230 | 1.0 | 4.0 | 0.00 | 0.00 | 0.00 | 70 | 1004.4 |
| 20260509080331 | 57 | 228 | 0.0 | 4.0 | 0.00 | 0.00 | 0.00 | 70 | 1004.4 |
| 20260509075825 | 57 | 223 | 0.0 | 3.0 | 0.00 | 0.00 | 0.00 | 70 | 1004.4 |
| 20260509075320 | 58 | 205 | 0.0 | 5.0 | 0.00 | 0.00 | 0.00 | 69 | 1004.4 |
| 20260509074814 | 58 | 205 | 0.0 | 5.0 | 0.00 | 0.00 | 0.00 | 69 | 1004.5 |
| 20260509074308 | 58 | 179 | 0.0 | 3.0 | 0.00 | 0.00 | 0.00 | 69 | 1004.5 |
| 20260509073801 | 58 | 209 | 1.0 | 3.0 | 0.00 | 0.00 | 0.00 | 69 | 1004.4 |
| 20260509073256 | 58 | 221 | 1.0 | 4.0 | 0.00 | 0.00 | 0.00 | 69 | 1004.4 |
| 20260509072750 | 58 | 229 | 1.0 | 5.0 | 0.00 | 0.00 | 0.00 | 68 | 1004.3 |
| 20260509072244 | 58 | 231 | 1.0 | 5.0 | 0.00 | 0.00 | 0.00 | 69 | 1004.4 |
| 20260509071959 | 58 | 199 | 1.0 | 4.0 | 0.00 | 0.00 | 0.00 | 69 | 1004.3 |
| 20260509071232 | 57 | 169 | 1.0 | 4.0 | 0.00 | 0.00 | 0.00 | 70 | 1004.3 |
| 20260509070949 | 57 | 184 | 1.0 | 4.0 | 0.00 | 0.00 | 0.00 | 70 | 1004.4 |
| 20260509070220 | 57 | 228 | 2.0 | 5.0 | 0.00 | 0.00 | 0.00 | 70 | 1004.4 |
| 20260509065715 | 57 | 258 | 1.0 | 5.0 | 0.00 | 0.00 | 0.00 | 70 | 1004.6 |
| 20260509065207 | 57 | 240 | 1.0 | 5.0 | 0.00 | 0.00 | 0.00 | 71 | 1004.6 |
| 20260509064701 | 57 | 215 | 1.0 | 6.0 | 0.00 | 0.00 | 0.00 | 71 | 1004.6 |
| 20260509064156 | 57 | 203 | 2.0 | 7.0 | 0.00 | 0.00 | 0.00 | 71 | 1004.6 |
| 20260509063650 | 56 | 230 | 2.0 | 8.0 | 0.00 | 0.00 | 0.00 | 72 | 1004.7 |
| 20260509063144 | 56 | 202 | 2.0 | 8.0 | 0.00 | 0.00 | 0.00 | 73 | 1004.7 |
| 20260509062638 | 56 | 250 | 1.0 | 9.0 | 0.00 | 0.00 | 0.00 | 74 | 1004.7 |
| 20260509062132 | 56 | 245 | 1.0 | 9.0 | 0.00 | 0.00 | 0.00 | 74 | 1004.7 |
| 20260509061626 | 55 | 233 | 1.0 | 7.0 | 0.00 | 0.00 | 0.00 | 75 | 1004.8 |
| 20260509061120 | 55 | 157 | 1.0 | 5.0 | 0.00 | 0.00 | 0.00 | 75 | 1004.8 |
| 20260509060614 | 55 | 205 | 1.0 | 3.0 | 0.00 | 0.00 | 0.00 | 75 | 1004.9 |
| 20260509060108 | 55 | 227 | 0.0 | 3.0 | 0.00 | 0.00 | 0.00 | 76 | 1005.0 |
| 20260509055602 | 55 | 263 | 0.0 | 6.0 | 0.00 | 0.00 | 0.00 | 76 | 1005.0 |
| 20260509055100 | 54 | 243 | 0.0 | 6.0 | 0.00 | 0.00 | 0.00 | 76 | 1005.0 |
| 20260509054600 | 54 | 184 | 0.0 | 2.0 | 0.00 | 0.00 | 0.00 | 77 | 1005.0 |
| 20260509054059 | 54 | 94 | 0.0 | 1.0 | 0.00 | 0.00 | 0.00 | 77 | 1005.1 |
| 20260509053557 | 54 | 234 | 0.0 | 1.0 | 0.00 | 0.00 | 0.00 | 76 | 1005.1 |
| 20260509053054 | 54 | 234 | 0.0 | 2.0 | 0.00 | 0.00 | 0.00 | 76 | 1005.1 |
| 20260509052553 | 54 | 234 | 0.0 | 2.0 | 0.00 | 0.00 | 0.00 | 75 | 1005.0 |
| 20260509052050 | 54 | 204 | 0.0 | 2.0 | 0.00 | 0.00 | 0.00 | 75 | 1005.1 |
| 20260509051548 | 54 | 223 | 0.0 | 2.0 | 0.00 | 0.00 | 0.00 | 75 | 1005.1 |
| 20260509051051 | 54 | 46 | 0.0 | 1.0 | 0.00 | 0.00 | 0.00 | 75 | 1005.1 |
| 20260509050548 | 54 | 93 | 0.0 | 1.0 | 0.00 | 0.00 | 0.00 | 74 | 1005.0 |
| 20260509050046 | 55 | 233 | 0.0 | 2.0 | 0.00 | 0.00 | 0.00 | 74 | 1005.1 |
| 20260509045544 | 55 | 233 | 0.0 | 2.0 | 0.00 | 0.00 | 0.00 | 74 | 1005.1 |
| 20260509045044 | 55 | 240 | 0.0 | 1.0 | 0.00 | 0.00 | 0.00 | 74 | 1005.1 |
| 20260509044543 | 55 | 276 | 0.0 | 4.0 | 0.00 | 0.00 | 0.00 | 74 | 1005.1 |
| 20260509044043 | 55 | 224 | 0.0 | 4.0 | 0.00 | 0.00 | 0.00 | 73 | 1005.1 |
| 20260509043540 | 55 | 229 | 0.0 | 3.0 | 0.00 | 0.00 | 0.00 | 74 | 1005.1 |
| 20260509043040 | 55 | 231 | 0.0 | 3.0 | 0.00 | 0.00 | 0.00 | 74 | 1005.1 |
| 20260509042804 | 54 | 264 | 0.0 | 7.0 | 0.00 | 0.00 | 0.00 | 75 | 1005.1 |
| 20260509042038 | 54 | 244 | 0.0 | 7.0 | 0.00 | 0.00 | 0.00 | 76 | 1005.1 |
| 20260509041800 | 54 | 255 | 0.0 | 0.0 | 0.00 | 0.00 | 0.00 | 76 | 1005.0 |
| 20260509041035 | 54 | 255 | 0.0 | 2.0 | 0.00 | 0.00 | 0.00 | 76 | 1005.1 |
| 20260509040537 | 54 | 255 | 0.0 | 2.0 | 0.00 | 0.00 | 0.00 | 75 | 1005.1 |
| 20260509040035 | 54 | 169 | 0.0 | 0.0 | 0.00 | 0.00 | 0.00 | 75 | 1005.2 |
| 20260509035536 | 54 | 197 | 0.0 | 4.0 | 0.00 | 0.00 | 0.00 | 76 | 1005.2 |
| 20260509035037 | 54 | 197 | 0.0 | 4.0 | 0.00 | 0.00 | 0.00 | 76 | 1005.3 |
| 20260509034536 | 53 | 252 | 0.0 | 2.0 | 0.00 | 0.00 | 0.00 | 76 | 1005.3 |
| 20260509034254 | 53 | 205 | 0.0 | 0.0 | 0.00 | 0.00 | 0.00 | 77 | 1005.3 |
| 20260509033034 | 53 | 347 | 0.0 | 0.0 | 0.00 | 0.00 | 0.00 | 77 | 1005.4 |
| 20260509032534 | 53 | 347 | 0.0 | 0.0 | 0.00 | 0.00 | 0.00 | 77 | 1005.5 |
| 20260509032034 | 53 | 347 | 0.0 | 2.0 | 0.00 | 0.00 | 0.00 | 78 | 1005.5 |
| 20260509031534 | 53 | 347 | 0.0 | 2.0 | 0.00 | 0.00 | 0.00 | 79 | 1005.5 |
| 20260509031254 | 52 | 86 | 0.0 | 0.0 | 0.00 | 0.00 | 0.00 | 80 | 1005.5 |
| 20260509030534 | 52 | 86 | 0.0 | 2.0 | 0.00 | 0.00 | 0.00 | 80 | 1005.6 |
| 20260509030034 | 52 | 86 | 0.0 | 2.0 | 0.00 | 0.00 | 0.00 | 81 | 1005.6 |
| 20260509025532 | 51 | 220 | 0.0 | 0.0 | 0.00 | 0.00 | 0.00 | 82 | 1005.6 |
| 20260509024532 | 51 | 220 | 0.0 | 0.0 | 0.00 | 0.00 | 0.00 | 81 | 1005.5 |
| 20260509024032 | 52 | 220 | 0.0 | 0.0 | 0.00 | 0.00 | 0.00 | 81 | 1005.4 |
| 20260509023530 | 52 | 220 | 0.0 | 0.0 | 0.00 | 0.00 | 0.00 | 81 | 1005.5 |
| 20260509023024 | 53 | 220 | 0.0 | 0.0 | 0.00 | 0.00 | 0.00 | 80 | 1005.4 |
| 20260509022519 | 53 | 220 | 0.0 | 0.0 | 0.00 | 0.00 | 0.00 | 80 | 1005.4 |
| 20260509022014 | 53 | 220 | 0.0 | 0.0 | 0.00 | 0.00 | 0.00 | 80 | 1005.4 |
| 20260509021001 | 53 | 220 | 0.0 | 0.0 | 0.00 | 0.00 | 0.00 | 80 | 1005.3 |
| 20260509020455 | 53 | 220 | 0.0 | 0.0 | 0.00 | 0.00 | 0.00 | 80 | 1005.3 |
| 20260509020208 | 53 | 220 | 0.0 | 0.0 | 0.00 | 0.00 | 0.00 | 81 | 1005.3 |
| 20260509015444 | 53 | 220 | 0.0 | 0.0 | 0.00 | 0.00 | 0.00 | 81 | 1005.3 |
| 20260509014936 | 53 | 220 | 0.0 | 0.0 | 0.00 | 0.00 | 0.00 | 82 | 1005.2 |
| 20260509014430 | 53 | 220 | 0.0 | 0.0 | 0.00 | 0.00 | 0.00 | 82 | 1005.3 |
| 20260509014150 | 54 | 220 | 0.0 | 0.0 | 0.00 | 0.00 | 0.00 | 82 | 1005.2 |
| 20260509013419 | 54 | 220 | 0.0 | 0.0 | 0.00 | 0.00 | 0.00 | 81 | 1005.3 |
| 20260509012914 | 54 | 220 | 0.0 | 0.0 | 0.00 | 0.00 | 0.00 | 81 | 1005.3 |
| 20260509012407 | 55 | 220 | 0.0 | 0.0 | 0.00 | 0.00 | 0.00 | 81 | 1005.3 |
| 20260509011901 | 55 | 220 | 0.0 | 0.0 | 0.00 | 0.00 | 0.00 | 80 | 1005.3 |
| 20260509011355 | 55 | 220 | 0.0 | 0.0 | 0.00 | 0.00 | 0.00 | 80 | 1005.2 |
| 20260509010848 | 55 | 220 | 0.0 | 0.0 | 0.00 | 0.00 | 0.00 | 79 | 1005.2 |
| 20260509010344 | 56 | 220 | 0.0 | 0.0 | 0.00 | 0.00 | 0.00 | 78 | 1005.1 |
| 20260509005836 | 56 | 220 | 0.0 | 0.0 | 0.00 | 0.00 | 0.00 | 77 | 1005.1 |
| 20260509005331 | 56 | 220 | 0.0 | 0.0 | 0.00 | 0.00 | 0.00 | 76 | 1005.0 |
| 20260509004825 | 57 | 220 | 0.0 | 0.0 | 0.00 | 0.00 | 0.00 | 76 | 1004.9 |
| 20260509004319 | 57 | 220 | 0.0 | 0.0 | 0.00 | 0.00 | 0.00 | 74 | 1004.9 |
| 20260509003814 | 58 | 220 | 0.0 | 0.0 | 0.00 | 0.00 | 0.00 | 72 | 1004.9 |
| 20260509003307 | 58 | 220 | 0.0 | 0.0 | 0.00 | 0.00 | 0.00 | 72 | 1004.8 |
| 20260509002801 | 59 | 220 | 0.0 | 0.0 | 0.00 | 0.00 | 0.00 | 70 | 1004.8 |
| 20260509002255 | 59 | 220 | 0.0 | 0.0 | 0.00 | 0.00 | 0.00 | 69 | 1004.7 |
| 20260509001749 | 60 | 220 | 0.0 | 0.0 | 0.00 | 0.00 | 0.00 | 68 | 1004.7 |
| 20260509001244 | 60 | 220 | 0.0 | 0.0 | 0.00 | 0.00 | 0.00 | 67 | 1004.6 |
| 20260509000736 | 61 | 220 | 0.0 | 0.0 | 0.00 | 0.00 | 0.00 | 66 | 1004.6 |
| 20260509000449 | 61 | 220 | 0.0 | 0.0 | 0.00 | 0.00 | 0.00 | 65 | 1004.5 |
| 20260508235958 | 62 | 220 | 0.0 | 0.0 | 0.00 | 0.00 | 0.00 | 64 | 1004.5 |
| 20260508235217 | 62 | 220 | 0.0 | 0.0 | 0.00 | 0.00 | 0.00 | 63 | 1004.4 |
| 20260508234711 | 63 | 220 | 0.0 | 0.0 | 0.00 | 0.00 | 0.00 | 61 | 1004.5 |
| 20260508234204 | 63 | 220 | 0.0 | 0.0 | 0.00 | 0.00 | 0.00 | 59 | 1004.4 |
| 20260508233659 | 64 | 220 | 0.0 | 0.0 | 0.00 | 0.00 | 0.00 | 58 | 1004.4 |
| 20260508233154 | 65 | 220 | 0.0 | 0.0 | 0.00 | 0.00 | 0.00 | 55 | 1004.4 |
| 20260508232646 | 65 | 227 | 0.0 | 0.0 | 0.00 | 0.00 | 0.00 | 49 | 1004.4 |
| 20260508232407 | 65 | 227 | 0.0 | 0.0 | 0.00 | 0.00 | 0.00 | 46 | 1004.3 |
| 20260508231636 | 66 | 227 | 0.0 | 0.0 | 0.00 | 0.00 | 0.00 | 45 | 1004.3 |
| 20260508231131 | 66 | 174 | 0.0 | 0.0 | 0.00 | 0.00 | 0.00 | 45 | 1004.1 |
| 20260508230631 | 66 | 174 | 0.0 | 1.0 | 0.00 | 0.00 | 0.00 | 45 | 1004.2 |
| 20260508230131 | 66 | 210 | 0.0 | 2.0 | 0.00 | 0.00 | 0.00 | 45 | 1004.0 |
| 20260508225856 | 67 | 210 | 0.0 | 4.0 | 0.00 | 0.00 | 0.00 | 45 | 1004.0 |
| 20260508224350 | 68 | 249 | 0.0 | 6.0 | 0.00 | 0.00 | 0.00 | 42 | 1004.1 |
| 20260508223632 | 69 | 135 | 0.0 | 2.0 | 0.00 | 0.00 | 0.00 | 42 | 1004.1 |
| 20260508223127 | 69 | 255 | 0.0 | 2.0 | 0.00 | 0.00 | 0.00 | 42 | 1004.1 |
| 20260508222625 | 70 | 189 | 0.0 | 2.0 | 0.00 | 0.00 | 0.00 | 40 | 1004.1 |
| 20260508222125 | 70 | 207 | 1.0 | 6.0 | 0.00 | 0.00 | 0.00 | 39 | 1004.1 |
| 20260508221621 | 71 | 255 | 1.0 | 6.0 | 0.00 | 0.00 | 0.00 | 37 | 1004.1 |
| 20260508221119 | 71 | 233 | 1.0 | 3.0 | 0.00 | 0.00 | 0.00 | 39 | 1004.1 |
| 20260508220847 | 70 | 301 | 1.0 | 4.0 | 0.00 | 0.00 | 0.00 | 39 | 1004.1 |
| 20260508220119 | 69 | 221 | 1.0 | 4.0 | 0.00 | 0.00 | 0.00 | 41 | 1004.0 |
| 20260508215619 | 68 | 232 | 0.0 | 4.0 | 0.00 | 0.00 | 0.00 | 41 | 1004.1 |
| 20260508215119 | 68 | 229 | 1.0 | 4.0 | 0.00 | 0.00 | 0.00 | 40 | 1004.1 |
| 20260508214619 | 68 | 213 | 1.0 | 5.0 | 0.00 | 0.00 | 0.00 | 41 | 1004.2 |
| 20260508214121 | 68 | 194 | 1.0 | 5.0 | 0.00 | 0.00 | 0.00 | 40 | 1004.0 |
| 20260508213616 | 68 | 220 | 1.0 | 5.0 | 0.00 | 0.00 | 0.00 | 39 | 1004.1 |
| 20260508213109 | 69 | 196 | 1.0 | 5.0 | 0.00 | 0.00 | 0.00 | 38 | 1004.1 |
| 20260508212604 | 69 | 191 | 1.0 | 4.0 | 0.00 | 0.00 | 0.00 | 37 | 1004.0 |
| 20260508212057 | 69 | 218 | 2.0 | 7.0 | 0.00 | 0.00 | 0.00 | 37 | 1004.0 |
| 20260508211551 | 70 | 220 | 2.0 | 8.0 | 0.00 | 0.00 | 0.00 | 36 | 1004.1 |
| 20260508211046 | 70 | 208 | 3.0 | 8.0 | 0.00 | 0.00 | 0.00 | 36 | 1004.1 |
| 20260508210540 | 71 | 259 | 3.0 | 7.0 | 0.00 | 0.00 | 0.00 | 36 | 1004.1 |
| 20260508210251 | 71 | 245 | 2.0 | 7.0 | 0.00 | 0.00 | 0.00 | 35 | 1004.1 |
| 20260508205526 | 71 | 233 | 2.0 | 11.0 | 0.00 | 0.00 | 0.00 | 40 | 1004.1 |
| 20260508205248 | 71 | 217 | 3.0 | 11.0 | 0.00 | 0.00 | 0.00 | 36 | 1004.1 |
| 20260508204517 | 71 | 197 | 2.0 | 8.0 | 0.00 | 0.00 | 0.00 | 36 | 1004.2 |
| 20260508204009 | 70 | 223 | 2.0 | 7.0 | 0.00 | 0.00 | 0.00 | 40 | 1004.1 |
| 20260508203503 | 70 | 223 | 2.0 | 5.0 | 0.00 | 0.00 | 0.00 | 36 | 1004.2 |
| 20260508202957 | 71 | 212 | 3.0 | 7.0 | 0.00 | 0.00 | 0.00 | 35 | 1004.3 |
| 20260508202451 | 71 | 220 | 3.0 | 8.0 | 0.00 | 0.00 | 0.00 | 36 | 1004.2 |
| 20260508201946 | 70 | 205 | 3.0 | 12.0 | 0.00 | 0.00 | 0.00 | 40 | 1004.3 |
| 20260508201439 | 70 | 245 | 2.0 | 12.0 | 0.00 | 0.00 | 0.00 | 36 | 1004.4 |
| 20260508201151 | 71 | 176 | 2.0 | 6.0 | 0.00 | 0.00 | 0.00 | 36 | 1004.5 |
| 20260508200647 | 72 | 209 | 1.0 | 5.0 | 0.00 | 0.00 | 0.00 | 37 | 1004.6 |
| 20260508195921 | 72 | 248 | 1.0 | 7.0 | 0.00 | 0.00 | 0.00 | 39 | 1004.5 |
| 20260508195416 | 72 | 167 | 2.0 | 7.0 | 0.00 | 0.00 | 0.00 | 36 | 1004.7 |
| 20260508195131 | 72 | 230 | 2.0 | 8.0 | 0.00 | 0.00 | 0.00 | 36 | 1004.8 |
| 20260508194403 | 72 | 210 | 2.0 | 8.0 | 0.00 | 0.00 | 0.00 | 35 | 1004.9 |
| 20260508194116 | 72 | 209 | 2.0 | 9.0 | 0.00 | 0.00 | 0.00 | 37 | 1004.9 |
| 20260508193350 | 72 | 91 | 2.0 | 9.0 | 0.00 | 0.00 | 0.00 | 39 | 1004.9 |
| 20260508192339 | 71 | 77 | 3.0 | 9.0 | 0.00 | 0.00 | 0.00 | 40 | 1005.1 |
| 20260508191833 | 71 | 239 | 2.0 | 8.0 | 0.00 | 0.00 | 0.00 | 37 | 1005.1 |
| 20260508191327 | 71 | 283 | 2.0 | 7.0 | 0.00 | 0.00 | 0.00 | 40 | 1005.2 |
| 20260508190822 | 70 | 232 | 2.0 | 7.0 | 0.00 | 0.00 | 0.00 | 42 | 1005.2 |
| 20260508190316 | 70 | 127 | 1.0 | 5.0 | 0.00 | 0.00 | 0.00 | 41 | 1005.4 |
| 20260508185809 | 70 | 231 | 2.0 | 6.0 | 0.00 | 0.00 | 0.00 | 39 | 1005.5 |
| 20260508185306 | 70 | 220 | 2.0 | 7.0 | 0.00 | 0.00 | 0.00 | 42 | 1005.5 |
| 20260508184801 | 70 | 153 | 2.0 | 10.0 | 0.00 | 0.00 | 0.00 | 37 | 1005.7 |
| 20260508184524 | 70 | 176 | 3.0 | 10.0 | 0.00 | 0.00 | 0.00 | 38 | 1005.7 |
| 20260508183756 | 70 | 258 | 2.0 | 10.0 | 0.00 | 0.00 | 0.00 | 37 | 1005.7 |
| 20260508183257 | 70 | 306 | 2.0 | 8.0 | 0.00 | 0.00 | 0.00 | 42 | 1005.7 |
| 20260508182756 | 70 | 262 | 3.0 | 10.0 | 0.00 | 0.00 | 0.00 | 37 | 1005.9 |
| 20260508182257 | 70 | 274 | 2.0 | 10.0 | 0.00 | 0.00 | 0.00 | 36 | 1005.8 |
| 20260508181758 | 71 | 285 | 2.0 | 6.0 | 0.00 | 0.00 | 0.00 | 41 | 1005.9 |
| 20260508181255 | 70 | 250 | 3.0 | 6.0 | 0.00 | 0.00 | 0.00 | 37 | 1005.8 |
| 20260508180755 | 70 | 200 | 2.0 | 6.0 | 0.00 | 0.00 | 0.00 | 38 | 1005.9 |
| 20260508180255 | 71 | 301 | 1.0 | 6.0 | 0.00 | 0.00 | 0.00 | 40 | 1005.9 |
| 20260508175753 | 70 | 125 | 2.0 | 9.0 | 0.00 | 0.00 | 0.00 | 37 | 1005.9 |
| 20260508175254 | 70 | 231 | 2.0 | 9.0 | 0.00 | 0.00 | 0.00 | 36 | 1006.1 |
| 20260508174749 | 70 | 226 | 2.0 | 11.0 | 0.00 | 0.00 | 0.00 | 40 | 1006.3 |
| 20260508174510 | 69 | 234 | 3.0 | 11.0 | 0.00 | 0.00 | 0.00 | 38 | 1006.2 |
| 20260508173746 | 69 | 51 | 3.0 | 10.0 | 0.00 | 0.00 | 0.00 | 39 | 1006.2 |
| 20260508173247 | 69 | 221 | 2.0 | 8.0 | 0.00 | 0.00 | 0.00 | 41 | 1006.3 |
| 20260508172746 | 69 | 196 | 2.0 | 8.0 | 0.00 | 0.00 | 0.00 | 39 | 1006.1 |
| 20260508172247 | 69 | 176 | 3.0 | 10.0 | 0.00 | 0.00 | 0.00 | 38 | 1006.2 |
| 20260508171747 | 68 | 203 | 4.0 | 12.0 | 0.00 | 0.00 | 0.00 | 45 | 1006.4 |
| 20260508171241 | 68 | 205 | 3.0 | 12.0 | 0.00 | 0.00 | 0.00 | 37 | 1006.4 |
| 20260508170735 | 67 | 212 | 2.0 | 12.0 | 0.00 | 0.00 | 0.00 | 43 | 1006.5 |
| 20260508170229 | 67 | 231 | 2.0 | 12.0 | 0.00 | 0.00 | 0.00 | 38 | 1006.5 |
| 20260508165725 | 67 | 193 | 1.0 | 5.0 | 0.00 | 0.00 | 0.00 | 40 | 1006.6 |
| 20260508165444 | 67 | 77 | 2.0 | 7.0 | 0.00 | 0.00 | 0.00 | 40 | 1006.6 |
| 20260508164711 | 67 | 128 | 2.0 | 7.0 | 0.00 | 0.00 | 0.00 | 38 | 1006.7 |
| 20260508164205 | 67 | 139 | 2.0 | 7.0 | 0.00 | 0.00 | 0.00 | 41 | 1006.7 |
| 20260508163659 | 67 | 311 | 2.0 | 7.0 | 0.00 | 0.00 | 0.00 | 40 | 1006.8 |
| 20260508163154 | 66 | 252 | 2.0 | 7.0 | 0.00 | 0.00 | 0.00 | 43 | 1006.9 |